星链-3865 (STARLINK-3865 )

导读 | 豆包AI

STARLINK-3865是美国太空探索技术公司(SpaceX)星链星座的成员,星链项目旨在构建全球卫星互联网通信网络。该卫星于2022年5月6日发射,属于低轨卫星,承担互联网接入服务任务,增强了星链系统在全球覆盖的信号稳定性与服务容量,助力星链完成全球通信组网布局。

基本信息
目录编号:
52460
目录名称:
STARLINK-3865
国际标识:
2022-049K
轨道中心:
EARTH
卫星名称:
星链-3865
卫星全名:
星链-3865 (STARLINK-3865 )
卫星状态:
已陨落 最后检测时间 2025-01-01
发射日期:
2022-05-06 UTC
国别 :
美国 (US)
星等 :
--
轨道信息
数据来源 国际轨道数据
星历时间: 2025-01-01T14:33:33+0800
轨道信息已过期437天
半长轴: 6524.687km
偏心率: 0.0001697
轨道倾角: 53.200°
近地点辐角 325.846°
升交点赤经 179.461°
平近点角 158.103°
近地点: 145.444km
远地点: 147.66km
周期: 87.418分钟
每日圈数: 16.472643
详细信息
固有亮度:
5
最大亮度:
2.5
卫星平台:
Starlink v1.5
覆盖范围:
全球
运营商:
太空探索技术公司
运营商所在国:
美国
制造商(研发单位):
太空探索技术公司
制造商所在国:
美国
使用方式:
暂无
卫星简介
星链(Starlink)计划是由太空探索技术公司(SpaceX)提出的一个巨型低轨卫星互联网星座项目,计划在2019年至2024年间在太空搭建由约1.2万颗卫星组成的“星链”网络,其中1584颗将部署在地球上空550千米处的近地轨道,并从2020年开始工作。该卫星仍在工作。